Medicine Lodge, KS

7:43 PM CDT on April 22, 2018 (GMT -0500)
Medicine Lodge

Weather History for KP28 - October, 2012

Change the Weather History Date:

Wednesday, October 10, 2012

  Actual Average Record
Temperature  
Mean Temperature 52 °F 61 °F  
Max Temperature 68 °F 74 °F 94 °F (1963)
Min Temperature 35 °F 49 °F 28 °F (1896)
Degree Days  
Heating Degree Days 13 6  
Month to date heating degree days 109 47  
Since 1 July heating degree days 121 81  
Cooling Degree Days 0 2  
Month to date cooling degree days 0 25  
Year to date cooling degree days 2212 1756  
Moisture  
Dew Point 29 °F    
Average Humidity 48    
Maximum Humidity 76    
Minimum Humidity 20    
Precipitation  
Precipitation 0.00 in 0.09 in 3.81 in (1949)
Month to date precipitation 0.01 0.87  
Year to date precipitation 16.88 23.32  
Snow  
Snow 0.00 in 0.00 in - ()
Month to date snowfall 0.0 0.0  
Since 1 July snowfall 0.0 0.0  
Since 1 September snowfall 0.0 0.0  
Snow Depth 0.00 in    
Sea Level Pressure  
Sea Level Pressure 30.20 in    
Wind  
Wind Speed 5 mph (SSE)    
Max Wind Speed 15 mph    
Max Gust Speed 20 mph    
T = Trace of Precipitation, MM = Missing Value Source: NWS Daily Summary

Daily Weather History Graph

Daily Weather History Graph

Search for Another Location

Airport or City:

Astronomy

Oct. 10, 2012 Rise Set
Actual Time 7:38 AM CDT 7:03 PM CDT
Civil Twilight 7:12 AM CDT 7:29 PM CDT
Nautical Twilight 6:41 AM CDT 7:59 PM CDT
Astronomical Twilight 6:11 AM CDT 8:30 PM CDT
Moon 2:22 AM CDT (10/10) 4:01 PM CDT (10/10)
Length of Visible Light 12h 17m
Length of Day
11h 25m
Waning Crescent, 27% of the Moon is Illuminated
Oct 10
Waning Crescent
Oct 15
New
Oct 21
First Quarter
Oct 29
Full
Nov 6
Last Quarter

Hourly Weather History & Observations

Time (CDT) Temp. Windchill Dew Point Humidity Pressure Visibility Wind Dir Wind Speed Gust Speed Precip Events Conditions
12:56 AM 45.0 °F 43.5 °F 33.1 °F 63% 30.19 in - Variable 3.5 mph - N/A   Unknown
1:56 AM 43.0 °F 40.3 °F 33.1 °F 68% 30.20 in - NNE 4.6 mph - N/A   Unknown
2:56 AM 41.0 °F 38.0 °F 32.0 °F 70% 30.22 in - North 4.6 mph - N/A   Unknown
3:56 AM 37.9 °F 32.7 °F 30.0 °F 73% 30.22 in - North 6.9 mph - N/A   Unknown
4:56 AM 37.9 °F 34.4 °F 30.0 °F 73% 30.23 in - NW 4.6 mph - N/A   Unknown
5:56 AM 37.9 °F 34.4 °F 28.0 °F 68% 30.24 in - NNW 4.6 mph - N/A   Unknown
6:56 AM 36.0 °F 32.1 °F 28.0 °F 73% 30.25 in - North 4.6 mph - N/A   Unknown
7:56 AM 35.1 °F - 28.0 °F 76% 30.28 in - Calm Calm - N/A   Unknown
8:56 AM 39.9 °F - 30.9 °F 70% 30.30 in - Calm Calm - N/A   Unknown
9:56 AM 50.0 °F - 28.9 °F 44% 30.31 in - Calm Calm - N/A   Unknown
10:56 AM 55.0 °F - 27.0 °F 34% 30.30 in - SSE 4.6 mph - N/A   Unknown
11:56 AM 57.9 °F - 24.1 °F 27% 30.29 in - Variable 6.9 mph - N/A   Unknown
12:56 PM 61.0 °F - 24.1 °F 24% 30.27 in - South 8.1 mph - N/A   Unknown
1:56 PM 62.1 °F - 25.0 °F 24% 30.22 in - Variable 4.6 mph - N/A   Unknown
2:56 PM 64.9 °F - 25.0 °F 22% 30.18 in - Calm Calm - N/A   Unknown
3:56 PM 66.9 °F - 25.0 °F 21% 30.15 in - South 10.4 mph 17.3 mph N/A   Unknown
4:56 PM 66.9 °F - 26.1 °F 21% 30.13 in - SSE 8.1 mph - N/A   Unknown
5:56 PM 66.0 °F - 27.0 °F 23% 30.12 in - South 8.1 mph - N/A   Unknown
6:56 PM 62.1 °F - 28.9 °F 29% 30.11 in - South 6.9 mph - N/A   Unknown
7:56 PM 60.1 °F - 28.9 °F 31% 30.11 in - SSE 6.9 mph - N/A   Unknown
8:56 PM 57.9 °F - 30.0 °F 35% 30.10 in - SE 6.9 mph - N/A   Unknown
9:56 PM 59.0 °F - 30.0 °F 33% 30.09 in - SSE 6.9 mph - N/A   Unknown
10:56 PM 62.1 °F - 32.0 °F 32% 30.09 in - SSE 6.9 mph - N/A   Unknown
11:56 PM 59.0 °F - 35.1 °F 41% 30.09 in - South 8.1 mph - N/A   Unknown